Orbital Elements at Epoch 2459000.5 (2020-May-31.0) TDB
Reference: JPL 13 (heliocentric ecliptic J2000)
Element | Value | Uncertainty (1-sigma) | Units |
e | .09764449783966868 | 6.43e-08 | |
a | 2.393019656393077 | 2.2523e-08 | au |
q | 2.159354453724119 | 1.5732e-07 | au |
i | 2.310139939194143 | 5.347e-06 | deg |
node | 87.6514774536609 | 0.00019126 | deg |
peri | 228.3797525192174 | 0.00019533 | deg |
M | 92.14628932839764 | 3.52e-05 | deg |
tp | 2458654.406712529739 (2019-Jun-19.90671253) | 0.00013413 | TDB |
period | 1352.128060689 3.70 | 1.909e-05 5.227e-08 | d yr |
n | .2662469705839517 | 3.7589e-09 | deg/d |
Q | 2.626684859062035 | 2.4723e-08 | au |
|
| | Orbit Determination Parameters
Additional Information
|